Location: Bishopstone
(51.0167°N, 1.9000°W)
Time: 11:23:41
(UTC+00:00)

Cosmos 2237 Rocket - Pass Details

Date: 16 September 2019
Orbit: 833 x 852 km, 71.0° (Epoch: 22 October)

Event Time Altitude Azimuth Distance (km) Brightness Sun altitude
Rises 20:09:43 0° 329° (NNW) 3,424 6.4 -17.3°
Reaches altitude 10° 20:12:10 10° 329° (NNW) 2,487 5.5 -17.6°
Maximum altitude 20:17:54 86° 243° (WSW) 861 2.2 -18.4°
Enters shadow 20:21:10 27° 155° (SSE) 1,589 3.2 -18.9°
